User: anonymous   Login
Location: Unspecified
(0.0000°N, 0.0000°E)
Time: 20:06:19
(UTC+00:00)
Language:

ONEWEB-0082 - Orbit

View from above orbital plane
View from above orbital plane
View from above satellite
View from above satellite

Ground track
Ground track

The orbit is defined by the following mean orbital elements,

1 45452U          26145.59676352 +.00000000 +00000-0 -14556-3 0 00009
2 45452  87.8917  25.5521 0001899  75.0253 285.1085 13.11414243    04
Epoch (UTC): 25 May 2026 14:19:20
Eccentricity: 0.0001899
inclination: 87.8917°
perigee height: 1216 km
apogee height: 1219 km
right ascension of ascending node: 25.5521°
argument of perigee: 75.0253°
revolutions per day: 13.11414243
mean anomaly at epoch: 285.1085°

The dashed part of the orbit path shows where the satellite is in the earth's shadow,  

DLR